Woodinville, Washington, United States (98072)
Lat: 47.75N, Lon: 122.16W
Wx Zone: WAZ505
Local Info
Past Weather Observations for Yesterday

NOTE: This archive is for the closest National Weather Service station to Woodinville. Information may differ from the station used for current weather conditions.

Click here for Long-term Archive

Time Weather Temperature Dewpoint Humidity Pressure Winds Precip Visibility
23:53
Overcast
52°F / 11°C 45°F / 7°C 77% 30.27 in
(1025 mb)
SSE 10.4 mph
(SSE 17 kph)
- 10SM
22:53
Overcast
54°F / 12°C 45°F / 7°C 72% 30.24 in
(1024 mb)
SSE 11.5 mph
(SSE 19 kph)
- 10SM
21:53
Overcast
54°F / 12°C 45°F / 7°C 72% 30.24 in
(1024 mb)
S 11.5 mph
(S 19 kph)
- 10SM
21:43
Overcast
54°F / 12°C 43°F / 6°C 67% 30.24 in
(1024 mb)
SSE 11.5 mph
(SSE 19 kph)
- 10SM
20:53
Overcast
54°F / 12°C 43°F / 6°C 67% 30.24 in
(1024 mb)
S 13.8 mph
(S 22 kph)
- 10SM
19:53
Overcast
55°F / 13°C 41°F / 5°C 59% 30.21 in
(1023 mb)
S 15 mph
(S 24 kph)
- 10SM
18:53
Overcast
55°F / 13°C 39°F / 4°C 55% 30.21 in
(1023 mb)
S 12.7 mph
(S 20 kph)
0.00 in
(0.00 mm)
10SM
17:53
Overcast
55°F / 13°C 39°F / 4°C 55% 30.21 in
(1023 mb)
S 13.8 mph
(S 22 kph)
0.00 in
(0.00 mm)
10SM
16:53
Overcast
57°F / 14°C 39°F / 4°C 51% 30.21 in
(1023 mb)
SW 12.7 mph
(SW 20 kph)
- 10SM
15:53
Overcast
57°F / 14°C 39°F / 4°C 51% 30.21 in
(1023 mb)
S 11.5 mph
(S 19 kph)
- 10SM
14:53
Partly Cloudy
57°F / 14°C 36°F / 2°C 44% 30.21 in
(1023 mb)
S 10.4 mph
(S 17 kph)
- 10SM
13:53
Overcast
57°F / 14°C 36°F / 2°C 44% 30.21 in
(1023 mb)
S 15 mph
(S 24 kph)
- 10SM
12:53
Partly Cloudy
55°F / 13°C 37°F / 3°C 51% 30.21 in
(1023 mb)
S 15 mph
(S 24 kph)
- 10SM
11:53
Mostly Cloudy
55°F / 13°C 37°F / 3°C 51% 30.24 in
(1024 mb)
S 12.7 mph
(S 20 kph)
- 10SM
10:53
Mostly Cloudy
52°F / 11°C 37°F / 3°C 58% 30.21 in
(1023 mb)
S 11.5 mph
(S 19 kph)
- 10SM
09:53
Mostly Cloudy
50°F / 10°C 37°F / 3°C 62% 30.21 in
(1023 mb)
SSE 6.9 mph
(SSE 11 kph)
- 10SM
08:53
Clear
48°F / 9°C 37°F / 3°C 66% 30.21 in
(1023 mb)
S 6.9 mph
(S 11 kph)
- 10SM
07:53
Clear
45°F / 7°C 36°F / 2°C 71% 30.18 in
(1022 mb)
SSE 9.2 mph
(SSE 15 kph)
- 10SM
06:53
Clear
43°F / 6°C 36°F / 2°C 76% 30.18 in
(1022 mb)
SSE 8.1 mph
(SSE 13 kph)
- 10SM
05:53
Clear
41°F / 5°C 36°F / 2°C 81% 30.15 in
(1021 mb)
SE 5.8 mph
(SE 9 kph)
- 10SM
04:53
Clear
41°F / 5°C 36°F / 2°C 81% 30.15 in
(1021 mb)
SE 3.5 mph
(SE 6 kph)
- 10SM
03:53
Clear
41°F / 5°C 36°F / 2°C 81% 30.12 in
(1020 mb)
SE 6.9 mph
(SE 11 kph)
- 10SM
02:53
Clear
39°F / 4°C 37°F / 3°C 93% 30.12 in
(1020 mb)
ESE 8.1 mph
(ESE 13 kph)
- 10SM
01:53
Clear
43°F / 6°C 37°F / 3°C 81% 30.12 in
(1020 mb)
Variable 3.5 mph
(Variable 6 kph)
- 10SM
00:53
Clear
43°F / 6°C 37°F / 3°C 81% 30.12 in
(1020 mb)
SSE 5.8 mph
(SSE 9 kph)
- 10SM
Time Weather Temperature Dewpoint Humidity Pressure Winds Precip Visibility


Weather for websites

WeatherForYou.com, LLC is not responsible for any damages or problems caused by this service. Current weather conditions are obtained from the closest station including government and personal stations which may have varying degrees of accuracy. Weather forecasts are derived from the NOAA NDFD. Like all things, this site belongs to Jesus Christ... He just trusts us to maintain it. If you have any questions or comments email webmaster@weatherforyou.com

Copyright © 2015, WeatherForYou.com LLC. All rights reserved.